STARLINK-34823

Last updated on Tue Sep 16 2025 00:02:07 GMT+0000 (Coordinated Universal Time)

1 65355U 25190E 25257.99132198 -.00595607 00000+0 -66338-2 0 9995 2 65355 53.1588 267.9309 0000987 114.8883 245.2236 15.64076115 2809
UTC large
Height (km)
Speed (km/s)
/
Latitude / Longitude
Inclination (degrees)
Orbital Period (minutes)
Azimuth
Elevation
Range (km)
Doppler Factor

Next 0 passes for location: London (51.5072 / 0.1276)

Sorry there are no passes over London.